Tracking 28790 objects as of 18-Apr-2024
HD Live streaming from Space Station
objects crossing your sky now

FENGYUN 1C DEB

Track FENGYUN 1C DEB now!
10-day predictions


NORAD ID: 30496
Int'l Code: 1999-025AHJ
Perigee: 520.8 km
Apogee: 744.1 km
Inclination: 98.9 °
Period: 97.2 minutes
Semi major axis: 7003 km
RCS: 0.0065 m2 (small)
Launch date: May 10, 1999
Source: People's Republic of China (PRC)
Launch site: Taiyaun Space Center, China (TSC)

Note: This is SATELLITE DEBRIS
Your satellite tracking list
Your tracking list is empty




NASA's NSSDC Master Catalog

Two Line Element Set (TLE):
1 30496U 99025AHJ 24108.50306368  .00013735  00000-0  14193-2 0  9992
2 30496  98.8507 300.8330 0159407 234.2016 124.4290 14.81268728921632
Source of the keplerian elements: AFSPC